This is the latest recevied weather packets stored in our database for station/object W9WRP. If no packets are shown the sender has not sent any weather packets the latest 10 day(s).
| Time | Temp. | Humidity | Pressure | Rain* | Wind** | Luminosity | Snow |
|---|---|---|---|---|---|---|---|
| 1787686364 | 43.33° C | 15% | 1015.1 hPa | 0 mm | - | 719 W/m² | - |
| 1787686060 | 43.89° C | 16% | 1015 hPa | 0 mm | - | 719 W/m² | - |
| 1787685755 | 43.89° C | 15% | 1015.1 hPa | 0 mm | - | 719 W/m² | - |
| 1787685455 | 44.44° C | 15% | 1015.3 hPa | 0 mm | - | 717 W/m² | - |
| 1787685149 | 43.33° C | 15% | 1015.4 hPa | 0 mm | - | 715 W/m² | - |
| 1787684845 | 43.89° C | 15% | 1015.4 hPa | 0 mm | - | 713 W/m² | - |
| 1787684545 | 44.44° C | 15% | 1015.7 hPa | 0 mm | - | 710 W/m² | - |
| 1787684240 | 43.89° C | 15% | 1015.6 hPa | 0 mm | - | 706 W/m² | - |
| 1787683935 | 43.89° C | 15% | 1015.6 hPa | 0 mm | - | 704 W/m² | - |
| 1787683629 | 43.89° C | 15% | 1015.9 hPa | 0 mm | - | 698 W/m² | - |
| 1787683323 | 43.33° C | 16% | 1016 hPa | 0 mm | - | 693 W/m² | - |
| 1787683016 | 42.78° C | 16% | 1016.1 hPa | 0 mm | - | 687 W/m² | - |
| 1787682711 | 43.33° C | 16% | 1016.2 hPa | 0 mm | - | 681 W/m² | - |
| 1787682407 | 42.22° C | 16% | 1016.4 hPa | 0 mm | - | 676 W/m² | - |
| 1787682102 | 43.33° C | 16% | 1016.3 hPa | 0 mm | - | 668 W/m² | - |
| 1787681797 | 43.33° C | 16% | 1016.4 hPa | 0 mm | - | 661 W/m² | - |
| 1787681491 | 42.78° C | 16% | 1016.4 hPa | 0 mm | - | 653 W/m² | - |
| 1787681187 | 42.78° C | 16% | 1016.5 hPa | 0 mm | - | 645 W/m² | - |
| 1787680882 | 42.22° C | 16% | 1016.4 hPa | 0 mm | - | 637 W/m² | - |
| 1787680577 | 42.22° C | 16% | 1016.6 hPa | 0 mm | - | 630 W/m² | - |
| 1787680276 | 42.22° C | 17% | 1016.5 hPa | 0 mm | - | 618 W/m² | - |
| 1787679975 | 42.78° C | 16% | 1017.1 hPa | 0 mm | - | 608 W/m² | - |
| 1787679674 | 42.22° C | 16% | 1016.8 hPa | 0 mm | - | 599 W/m² | - |
| 1787679370 | 41.67° C | 17% | 1016.7 hPa | 0 mm | - | 586 W/m² | - |
| 1787679066 | 42.22° C | 17% | 1016.8 hPa | 0 mm | - | 574 W/m² | - |
* Rain latest hour (hover to see other rain measurements)
** Current wind speed in m/s (hover to see current wind gust speed)